Back to catalog

COSMOS 2251 DEB

AliveLEO
NORAD 35703·DEBRIS·🇷🇺 Russia

Launched Jun 16, 1993 from Plesetsk Cosmodrome

Loading…

Next Passes (next 24 hours)

TLE

AgingSource: Space-Track

Epoch: Sep 12, 2026, 04:06 UTC

1 35703U 93036APY 26255.17088995  .00003647  00000-0  33193-3 0  9998
2 35703  74.0392 213.5735 0063338 212.8560 146.8681 14.94060658706952

Track COSMOS 2251 DEB in real time with AllMySat

Download on the App Store